sat.trackr.live / text

‹ back to catalog

STARLINK-3105

NORAD 49440 · 2021-104AJ

PAYLOAD ACTIVE UNKNOWN

§ Identity

Operator
Country
US
Launch date
2021-11-13
Launch site
AFETR
Launch vehicle
Mass (kg)
RCS (m²)

Purposes: comms

External: N2YO · Heavens-Above · Gunter

§ Orbital elements

Epoch: 2026-09-15T00:00:02.000160Z

Period
94.05 min
Inclination
53.1609°
Eccentricity
0.0002267
Mean motion
15.31141231 rev/d
Perigee alt
470.9 km
Apogee alt
474.0 km
Semi-major
6,850.5 km
B*
5.0083e-2
RAAN
77.0414°
Arg perigee
96.8804°
Mean anomaly
0.4600°
Rev number
580

§ Raw data

STARLINK-31051 49440U 21104AJ  26258.00002315  .01689763  00000+0  50083-1 0  99992 49440  53.1609  77.0414 0002267  96.8804   0.4600 15.31141231  5807

JSON: /api/v1/satellites/49440 · /tle

For live sub-satellite position, see the globe view (requires WebGL).

§ Visibility from observer

Set your observer location to see the next 7 days of passes ≥ 10°. The values pass through the URL so the page stays shareable.

No JS? Fill the form by hand. The geolocation button needs JavaScript.